Waarnemingen

Advertentie
Mijn weer
Carcassonne, Frankrijk (7635): temperatuur & dauwpunt: 19.03.2019 23:00:00 - 25.03.2019 23:00:00 (CET)Carcassonne, Frankrijk (7635): temperatuur 5cm: 19.03.2019 23:00:00 - 25.03.2019 23:00:00 (CET)Carcassonne, Frankrijk (7635): temperatuur -20cm & temperatuur -100cm: 19.03.2019 23:00:00 - 25.03.2019 23:00:00 (CET)Carcassonne, Frankrijk (7635): windsnelheid & windstoten: 19.03.2019 23:00:00 - 25.03.2019 23:00:00 (CET)Carcassonne, Frankrijk (7635): windrichting: 19.03.2019 23:00:00 - 25.03.2019 23:00:00 (CET)Carcassonne, Frankrijk (7635): luchtdruk: 19.03.2019 23:00:00 - 25.03.2019 23:00:00 (CET)Carcassonne, Frankrijk (7635): zicht: 19.03.2019 23:00:00 - 25.03.2019 23:00:00 (CET)Carcassonne, Frankrijk (7635): Zonneschijnduur: 19.03.2019 23:00:00 - 25.03.2019 23:00:00 (CET)Carcassonne, Frankrijk (7635): neerslag: 19.03.2019 23:00:00 - 25.03.2019 23:00:00 (CET)
Datum & Tijd tt [°C] td [°C] tt 5cm [°C] tt -20cm [°C] tt -100cm [°C] ff [km/u] ff [kn] fx [km/u] fx [kn] dd ppp [hPa] vv [km] sd [min] rr [mm]
25.03.2019 23:00:00 9,6 -2,1 8,1 13,3 11,8 17 9 40 22 WNW 1024,3 53 0 0,0
25.03.2019 22:00:00 10,9 1,1 9,9 13,5 11,8 25 14 48 26 WNW 1023,3 51 0 0,0
25.03.2019 21:00:00 12,1 1,4 11,1 13,7 11,7 29 15 50 27 W 1022,4 50 0 0,0
25.03.2019 20:00:00 12,7 1,4 11,6 13,8 11,7 23 12 44 24 W 1022,0 44 0 0,0
25.03.2019 19:00:00 14,1 1,4 13,2 13,8 11,7 28 15 51 28 W 1021,4 40 40 0,0
25.03.2019 18:00:00 15,1 3,6 14,9 13,8 11,7 25 13 61 33 W 1021,2 19 57 0,0
25.03.2019 17:00:00 15,4 3,5 16,9 13,7 11,7 29 16 56 31 W 1021,8 15 60 0,0
25.03.2019 16:00:00 15,5 3,6 15,7 13,5 11,7 36 20 60 33 WNW 1022,6 13 46 0,0
25.03.2019 15:00:00 15,5 3,3 17,4 13,1 11,7 38 20 66 36 WNW 1022,7 12 57 0,0
25.03.2019 14:00:00 15,1 3,6 17,6 12,7 11,7 41 22 66 35 WNW 1023,3 12 60 0,0
25.03.2019 13:00:00 14,3 3,4 16,9 12,3 11,7 41 22 67 36 WNW 1023,9 11 60 0,0
25.03.2019 12:00:00 13,6 3,6 15,7 12,0 11,7 40 21 64 35 W 1024,1 11 60 0,0
25.03.2019 11:00:00 12,2 3,7 13,7 11,8 11,7 37 20 59 32 W 1024,7 10 60 0,0
25.03.2019 10:00:00 10,7 4,4 11,4 11,8 11,7 34 18 55 30 W 1024,9 10 60 0,0
25.03.2019 09:00:00 9,3 3,9 9,6 11,8 11,7 30 16 52 28 W 1024,4 14 60 0,0
25.03.2019 08:00:00 8,4 3,0 6,6 12,0 11,7 24 13 40 22 W 1024,1 16 54 0,0
25.03.2019 07:00:00 7,3 2,6 6,4 12,2 11,6 21 11 33 18 W 1023,8 17 0 0,0
25.03.2019 06:00:00 8,5 2,5 7,5 12,3 11,6 19 10 36 19 W 1023,5 20 0 0,0
25.03.2019 05:00:00 9,9 2,5 9,0 12,5 11,6 21 11 42 23 W 1023,2 22 0 0,0
25.03.2019 04:00:00 10,2 2,3 9,1 12,7 11,6 17 9 34 19 W 1023,3 32 0 0,0
25.03.2019 03:00:00 11,6 2,3 10,3 12,9 11,6 17 9 32 17 W 1023,3 34 0 0,0
25.03.2019 02:00:00 11,9 2,1 10,6 13,0 11,6 15 8 29 16 WZW 1023,3 41 0 0,0
25.03.2019 01:00:00 12,5 2,1 10,9 13,3 11,6 13 7 26 14 WZW 1023,3 47 0 0,0
25.03.2019 00:00:00 13,0 1,9 11,6 13,4 11,6 16 8 29 16 W 1023,5 56 0 0,0
24.03.2019 23:00:00 13,7 1,7 12,4 13,6 11,6 19 10 34 18 W 1023,3 60 0 0,0
24.03.2019 22:00:00 14,5 2,1 13,0 13,8 11,6 18 10 30 16 W 1023,3 60 0 0,0
24.03.2019 21:00:00 14,7 1,6 12,2 14,0 11,6 17 9 26 14 W 1023,0 60 0 0,0
24.03.2019 20:00:00 16,8 0,0 13,4 14,1 11,6 14 8 29 15 W 1022,5 60 0 0,0
24.03.2019 19:00:00 17,5 -0,3 14,8 14,1 11,6 13 7 34 18 W 1022,1 60 39 0,0
24.03.2019 18:00:00 21,1 1,4 20,2 14,0 11,6 19 11 37 20 W 1021,4 60 60 0,0
24.03.2019 17:00:00 22,3 2,4 24,0 13,8 11,6 23 13 40 22 W 1021,4 46 60 0,0
24.03.2019 16:00:00 22,9 2,9 25,2 13,4 11,6 26 14 48 26 WNW 1021,8 42 60 0,0
24.03.2019 15:00:00 22,6 2,6 25,5 12,9 11,6 29 15 44 24 WNW 1022,1 20 60 0,0
24.03.2019 14:00:00 22,0 3,6 25,2 12,4 11,6 27 14 41 22 W 1023,0 44 60 0,0
24.03.2019 13:00:00 20,9 4,9 24,2 11,8 11,5 25 13 40 22 W 1023,8 51 60 0,0
24.03.2019 12:00:00 19,6 4,9 22,4 11,4 11,5 23 12 35 19 W 1024,5 57 60 0,0
24.03.2019 11:00:00 18,0 4,5 20,0 11,1 11,6 22 12 36 20 W 1024,8 60 60 0,0
24.03.2019 10:00:00 15,7 5,0 17,5 10,9 11,5 19 10 31 17 W 1025,1 60 60 0,0
24.03.2019 09:00:00 13,5 3,6 11,7 10,9 11,5 11 6 21 12 WZW 1025,1 53 60 0,0
24.03.2019 08:00:00 7,8 4,4 1,4 11,1 11,5 3 2 12 6 ZZW 1025,3 45 52 0,0
24.03.2019 07:00:00 4,3 2,3 0,1 11,3 11,5 4 2 14 7 Z 1025,0 41 0 0,0
24.03.2019 06:00:00 4,0 2,0 0,3 11,5 11,5 4 2 11 6 Z 1024,8 45 0 0,0
24.03.2019 05:00:00 4,6 2,3 0,8 11,7 11,5 4 2 17 9 ZZW 1024,5 39 0 0,0
24.03.2019 04:00:00 5,3 2,5 1,3 11,9 11,5 4 2 13 7 Z 1024,5 38 0 0,0
24.03.2019 03:00:00 6,7 3,1 1,8 12,2 11,5 7 4 13 7 ZZO 1024,6 41 0 0,0
24.03.2019 02:00:00 7,5 3,0 2,1 12,4 11,5 7 4 12 7 Z 1024,6 43 0 0,0
24.03.2019 01:00:00 7,5 3,0 2,1 12,6 11,5 3 2 9 5 O 1024,7 44 0 0,0
24.03.2019 00:00:00 8,0 3,5 2,7 12,9 11,5 4 2 11 6 ZZO 1024,7 39 0 0,0
23.03.2019 23:00:00 8,9 3,5 4,4 13,1 11,5 5 3 14 8 Z 1024,7 37 0 0,0
23.03.2019 22:00:00 10,6 3,6 4,4 13,3 11,5 8 4 14 7 Z 1024,7 41 0 0,0
23.03.2019 21:00:00 13,5 2,4 5,6 13,4 11,5 6 3 12 7 W 1024,2 58 0 0,0
23.03.2019 20:00:00 14,7 3,2 7,2 13,5 11,5 9 5 14 8 W 1023,7 55 0 0,0
23.03.2019 19:00:00 17,6 3,5 14,3 13,6 11,5 12 6 26 14 WNW 1023,4 58 38 0,0
23.03.2019 18:00:00 21,8 3,0 20,7 13,4 11,5 17 9 29 16 W 1022,8 60 60 0,0
23.03.2019 17:00:00 22,8 3,8 24,6 13,2 11,5 19 10 35 19 W 1023,0 60 60 0,0
23.03.2019 16:00:00 23,1 3,1 25,2 12,8 11,5 22 12 34 19 W 1023,4 60 60 0,0
23.03.2019 15:00:00 22,8 3,3 24,6 12,2 11,5 22 12 38 21 W 1023,8 48 60 0,0
23.03.2019 14:00:00 22,1 3,7 23,9 11,7 11,5 24 13 41 22 W 1024,6 45 60 0,0
23.03.2019 13:00:00 21,6 3,7 24,8 11,1 11,5 22 12 37 20 W 1025,5 32 58 0,0
23.03.2019 12:00:00 20,1 4,1 22,1 10,7 11,4 23 13 35 19 W 1026,3 30 60 0,0
23.03.2019 11:00:00 18,0 4,5 20,9 10,4 11,5 18 10 29 16 W 1026,9 20 60 0,4
23.03.2019 10:00:00 16,2 4,2 16,8 10,2 11,4 14 8 24 13 W 1027,4 57 60 0,0
23.03.2019 09:00:00 13,0 4,2 10,6 10,3 11,5 11 6 23 12 WZW 1027,6 41 60 0,0
23.03.2019 08:00:00 6,9 4,7 -0,4 10,4 11,5 10 5 16 8 ZW 1027,9 35 50 0,0
23.03.2019 07:00:00 2,6 1,3 -0,6 10,6 11,4 3 1 9 5 Z 1028,0 31 0 0,0
23.03.2019 06:00:00 3,3 1,7 -1,0 10,8 11,5 5 3 10 5 Z 1027,8 34 0 0,0
23.03.2019 05:00:00 3,1 1,3 -0,6 11,0 11,4 4 2 12 6 Z 1027,8 33 0 0,0
23.03.2019 04:00:00 3,7 1,7 -0,4 11,2 11,5 5 3 11 6 Z 1028,0 35 0 0,0
23.03.2019 03:00:00 3,5 1,7 -0,3 11,5 11,5 4 2 8 4 Z 1028,2 33 0 0,0
23.03.2019 02:00:00 5,2 1,7 2,1 11,6 11,4 5 3 16 9 Z 1028,1 32 0 0,0
23.03.2019 01:00:00 5,4 2,2 0,8 11,9 11,5 6 4 14 7 Z 1028,0 19 0 0,0
23.03.2019 00:00:00 6,0 2,8 1,1 12,1 11,4 4 2 15 8 ZW 1028,1 29 0 0,0
22.03.2019 23:00:00 6,6 2,9 1,6 12,3 11,4 3 2 7 4 Z 1028,0 36 0 0,0
22.03.2019 22:00:00 7,7 3,5 2,7 12,5 11,4 4 2 6 3 Z 1027,6 32 0 0,0
22.03.2019 21:00:00 10,2 2,8 3,9 12,7 11,4 4 2 10 6 ONO 1027,1 40 0 0,0
22.03.2019 20:00:00 13,1 2,6 5,3 12,7 11,4 8 5 11 6 ONO 1026,5 47 0 0,0
22.03.2019 19:00:00 17,1 2,3 13,9 12,7 11,5 9 5 23 13 O 1025,7 58 37 0,0
22.03.2019 18:00:00 20,2 2,5 18,9 12,6 11,4 15 8 26 14 ONO 1025,4 57 60 0,0
22.03.2019 17:00:00 21,3 2,5 24,1 12,4 11,5 18 10 29 16 O 1025,3 59 60 0,0
22.03.2019 16:00:00 21,6 2,8 25,3 12,0 11,5 19 10 35 19 O 1025,7 45 60 0,0
22.03.2019 15:00:00 21,0 2,3 25,2 11,5 11,5 18 10 33 18 O 1026,3 42 60 0,0
22.03.2019 14:00:00 20,5 3,2 25,6 11,0 11,5 16 9 35 19 ONO 1027,1 35 60 0,0
22.03.2019 13:00:00 18,7 1,2 25,2 10,4 11,4 11 6 24 13 ONO 1028,1 26 60 0,0
22.03.2019 12:00:00 16,4 4,1 20,5 10,0 11,4 5 3 12 7 N 1028,7 20 60 0,0
22.03.2019 11:00:00 13,2 2,1 16,8 9,7 11,5 5 3 14 7 WNW 1029,5 20 60 0,0
22.03.2019 10:00:00 10,0 2,6 12,2 9,5 11,4 5 3 10 5 WNW 1029,8 31 60 0,0
22.03.2019 09:00:00 5,6 1,7 4,2 9,6 11,4 3 2 7 4 W 1029,9 19 60 0,0
22.03.2019 08:00:00 1,4 0,4 -3,5 9,8 11,5 4 2 12 6 WNW 1030,1 16 48 0,0
22.03.2019 07:00:00 -0,5 -1,2 -3,9 10,0 11,5 6 3 8 5 Z 1029,7 10 0 0,0
22.03.2019 06:00:00 -0,5 -1,6 -3,7 10,2 11,5 2 1 5 3 W 1029,5 13 0 0,0
22.03.2019 05:00:00 0,1 -1,3 -3,0 10,5 11,5 0 0 8 4 N 1029,3 14 0 0,0
22.03.2019 04:00:00 1,1 -0,4 -2,9 10,7 11,5 5 3 7 4 ZW 1029,4 14 0 0,0
22.03.2019 03:00:00 1,2 -0,6 -2,4 10,9 11,5 3 2 6 4 Z 1029,3 18 0 0,0
22.03.2019 02:00:00 1,8 -0,1 -1,8 11,2 11,5 3 2 8 4 W 1029,2 19 0 0,0
22.03.2019 01:00:00 2,9 0,6 -1,2 11,4 11,5 5 3 10 5 ZZW 1029,1 32 0 0,0
22.03.2019 00:00:00 3,9 0,4 0,0 11,6 11,5 3 2 10 5 ZZO 1029,1 25 0 0,0
21.03.2019 23:00:00 5,9 1,0 2,0 11,9 11,5 7 4 16 8 Z 1029,0 23 0 0,0
21.03.2019 22:00:00 6,7 1,2 0,8 12,1 11,5 9 5 16 9 Z 1029,0 29 0 0,0
21.03.2019 21:00:00 8,2 -0,3 1,5 12,3 11,5 5 3 13 7 WZW 1028,7 38 0 0,0
21.03.2019 20:00:00 10,9 -0,6 5,2 12,4 11,5 5 3 18 10 W 1027,9 41 0 0,0
21.03.2019 19:00:00 13,5 -0,6 11,1 12,4 11,5 10 5 18 10 WZW 1027,3 56 36 0,0
21.03.2019 18:00:00 16,5 -1,6 15,5 12,3 11,5 13 7 22 12 W 1026,9 50 60 0,0
21.03.2019 17:00:00 17,6 -1,1 20,0 12,1 11,5 12 7 23 12 W 1026,7 20 60 0,0
21.03.2019 16:00:00 17,4 -1,8 21,1 11,6 11,5 12 6 24 13 W 1027,1 46 60 0,0
21.03.2019 15:00:00 16,9 -1,3 21,0 11,1 11,5 14 7 29 15 W 1027,5 19 60 0,0
21.03.2019 14:00:00 16,7 -0,1 20,6 10,6 11,5 15 8 29 16 W 1028,1 56 60 0,0
21.03.2019 13:00:00 15,4 -2,1 20,0 10,1 11,5 16 9 29 15 WNW 1028,9 20 60 0,0
21.03.2019 12:00:00 14,3 1,5 17,5 9,6 11,5 19 10 35 19 W 1029,6 20 60 0,0
21.03.2019 11:00:00 12,4 2,3 14,9 9,3 11,5 17 9 31 17 W 1030,0 20 60 0,0
21.03.2019 10:00:00 9,7 1,3 11,8 9,2 11,5 10 5 18 10 W 1030,4 11 60 0,0
21.03.2019 09:00:00 7,2 0,4 4,2 9,3 11,5 8 4 14 7 WZW 1030,8 50 60 0,0
21.03.2019 08:00:00 2,1 -0,3 -4,0 9,5 11,5 9 5 15 8 Z 1031,0 35 48 0,0
21.03.2019 07:00:00 -0,8 -1,8 -4,4 9,7 11,5 4 2 12 7 ZW 1030,4 45 0 0,0
21.03.2019 06:00:00 -0,7 -2,3 -4,3 9,9 11,5 3 2 12 6 ZZW 1030,1 44 0 0,0
21.03.2019 05:00:00 0,4 -0,9 -3,8 10,1 11,5 9 5 14 8 ZZO 1029,9 46 0 0,0
21.03.2019 04:00:00 0,4 -1,5 -3,6 10,3 11,5 6 4 13 7 ZZW 1029,7 49 0 0,0
21.03.2019 03:00:00 0,5 -1,6 -3,1 10,5 11,5 6 3 13 7 Z 1030,3 45 0 0,0
21.03.2019 02:00:00 1,3 -0,9 -2,8 10,8 11,5 8 4 12 6 Z 1030,7 41 0 0,0
21.03.2019 01:00:00 2,0 -0,8 -2,4 11,0 11,5 5 3 8 5 Z 1030,8 40 0 0,0
21.03.2019 00:00:00 2,8 -0,7 -1,8 11,3 11,5 4 2 9 5 ZW 1031,0 47 0 0,0
20.03.2019 23:00:00 4,0 -0,2 -1,4 11,5 11,5 3 2 12 6 ZZW 1031,0 53 0 0,0
20.03.2019 22:00:00 5,0 -0,2 -0,5 11,7 11,5 4 2 13 7 W 1031,1 51 0 0,0
20.03.2019 21:00:00 6,8 -0,4 1,4 11,9 11,5 4 2 23 12 NW 1030,8 59 0 0,0
20.03.2019 20:00:00 9,8 -0,7 7,4 12,0 11,5 13 7 23 13 WZW 1030,0 60 0 0,0
20.03.2019 19:00:00 11,4 -1,1 9,7 12,1 11,5 12 6 36 19 W 1029,6 60 35 0,0
20.03.2019 18:00:00 13,4 -2,2 12,8 12,0 11,5 21 12 42 23 W 1029,1 52 60 0,0
20.03.2019 17:00:00 14,1 -2,0 16,0 11,9 11,5 24 13 41 22 W 1029,0 47 60 0,0
20.03.2019 16:00:00 14,1 -1,2 17,2 11,5 11,5 22 12 40 22 W 1029,2 49 60 0,0
20.03.2019 15:00:00 14,4 0,6 17,5 11,1 11,5 23 12 44 24 W 1029,4 48 60 0,0
20.03.2019 14:00:00 13,4 0,1 16,3 10,7 11,6 20 11 44 24 W 1030,0 20 60 0,0
20.03.2019 13:00:00 13,0 0,7 15,7 10,2 11,5 25 14 45 24 WNW 1030,8 44 60 0,0
20.03.2019 12:00:00 11,5 0,3 14,7 9,8 11,5 28 15 42 23 W 1031,1 20 60 0,0
20.03.2019 11:00:00 10,4 2,2 12,2 9,6 11,5 21 12 37 20 W 1031,4 18 60 0,0
20.03.2019 10:00:00 8,4 2,6 8,9 9,5 11,5 21 11 34 19 W 1031,4 45 60 0,0
20.03.2019 09:00:00 6,1 2,4 6,1 9,5 11,6 22 12 37 20 W 1031,4 41 60 0,0
20.03.2019 08:00:00 4,6 2,0 2,7 9,6 11,5 18 10 29 16 W 1031,1 41 45 0,0
20.03.2019 07:00:00 3,5 1,5 2,5 9,8 11,6 16 9 26 14 W 1030,7 40 0 0,0
20.03.2019 06:00:00 3,5 1,9 2,5 9,9 11,5 14 7 25 13 W 1030,4 36 0 0,0
20.03.2019 05:00:00 3,6 2,1 2,7 10,1 11,6 13 7 24 13 W 1029,9 34 0 0,0
20.03.2019 04:00:00 4,1 2,4 3,0 10,2 11,5 16 8 29 16 W 1029,9 34 0 0,0
20.03.2019 03:00:00 5,2 3,0 3,9 10,4 11,6 16 9 27 15 W 1030,1 46 0 0,0
20.03.2019 02:00:00 5,1 3,1 3,0 10,5 11,5 14 7 21 11 W 1030,3 45 0 0,0
20.03.2019 01:00:00 5,2 3,0 4,0 10,7 11,6 11 6 23 12 W 1030,3 44 0 0,0
20.03.2019 00:00:00 5,9 3,4 4,8 10,8 11,6 14 7 25 14 W 1030,2 48 0 0,0
19.03.2019 23:00:00 5,8 3,8 4,1 10,9 11,6 13 7 25 14 W 1029,9 46 0 0,0

tt = temperatuur
td = dauwpunt
tt 5cm = temperatuur 5cm
tt -20cm = temperatuur -20cm
tt -100cm = temperatuur -100cm
ff = windsnelheid
fx = windstoten
dd = windrichting
ppp = luchtdruk
vv = zicht
sd = Zonneschijnduur
rr = neerslag

Weerstations in de omgeving